Regional Weather Roundup
Issued by NWS Northern Indiana

Home | Current Version | Previous Version | Graphics & Text | Print | Product List | Glossary On
Versions: 1 2 3 4 5 6 7 8 9 10 11 12 13 14 15 16 17 18 19 20 21 22 23 24 25 26 27 28 29 30 31 32 33 34 35 36 37 38 39 40 41 42 43 44 45 46 47 48 49 50
000
ASUS43 KIWX 230910
RWRIWX

KIWX WEATHER ROUNDUP
NATIONAL WEATHER SERVICE NORTHERN INDIANA
500 AM EDT THU OCT 23 2014

NOTE: "FAIR" INDICATES FEW OR NO CLOUDS BELOW 12,000 FEET WITH NO
SIGNIFICANT WEATHER AND/OR OBSTRUCTIONS TO VISIBILITY.

* THESE STATIONS ARE NOT UNDER NWS QUALITY CONTROL. THEY ALSO MAY NOT
  REPORT WEATHER SUCH AS PRECIPITATION OR FOG.

INZ001>027-231000-
NORTHERN INDIANA

CITY           SKY/WX    TMP DP  RH WIND       PRES   REMARKS
GARY*          CLEAR     40  39  93 SE5       30.25S FOG
VALPARAISO     FOG       32  31  96 NE3       30.25F VSB 1/4
MICHIGAN CITY* CLEAR     34  34 100 S3        30.26R FOG
LAPORTE*       FOG       32  32 100 CALM      30.26S VSB 1/4
KNOX*            N/A     31  30  96 CALM      30.25S VSB 3/4
SOUTH BEND     CLEAR     33  31  92 CALM      30.26F FOG
GOSHEN         FOG       29  28  96 CALM      30.25F VSB 1/2
MONTICELLO*    CLEAR     39  38  97 SE3       30.25S
LOGANSPORT*    FOG       32  32 100 E3        30.26S VSB 1/4
ROCHESTER*       N/A     36  36 100 CALM      30.26S FOG
WARSAW*        FOG       30  30 100 CALM      30.26S VSB 1/4
ANGOLA*          N/A     30  12  47 CALM      30.25F
FORT WAYNE     FOG       32  30  92 CALM      30.27F VSB 3/4
HUNTINGTON*    FOG       33  33  99 CALM      30.26F VSB 1/4
PERU/GRISSOM   CLEAR     36  36 100 SE3       30.25S FOG
MARION*        CLEAR     33  33  99 CALM      30.26F FOG

$$
INZ028>050-231000-
CENTRAL INDIANA

CITY           SKY/WX    TMP DP  RH WIND       PRES   REMARKS
LAFAYETTE      CLEAR     38  36  92 E5        30.25F
KOKOMO*          N/A     32  28  86 SE3       30.27S VSB 1/4
MUNCIE*        FOG       32  31  96 E3        30.26S VSB 1/4
INDIANAPOLIS   CLEAR     40  37  89 E5        30.25S

$$
MIZ043>046-050>051-056>058-064>065-071>073-077>080-231000-
SOUTHWEST LOWER MICHIGAN

CITY           SKY/WX    TMP DP  RH WIND       PRES   REMARKS
BATTLE CREEK   FOG       32  29  88 CALM      30.26S VSB 1/4
BENTON HARBOR  CLEAR     32  32 100 SE5       30.25F FOG     WCI  27
COLDWATER*     FOG       31  31  99 CALM      30.26S VSB 1/2
HILLSDALE*     FOG       29  29 100 CALM      30.25F VSB 3/4
HOLLAND        FOG       33  31  92 CALM      30.26S VSB 1/2
GRAND RAPIDS   MOCLDY    31  29  92 SE3       30.25F FOG
KALAMAZOO      FOG       31  29  92 CALM      30.26F VSB 1/4
STURGIS*       FOG       30  30 100 CALM      30.25F VSB 1/4
THREE RIVERS*  FOG       32  31  99 CALM      30.26F VSB<1/4

$$
OHZ001>008-015>018-024>025-231000-
NORTHWEST OHIO

CITY           SKY/WX    TMP DP  RH WIND       PRES   REMARKS
WAUSEON*       FOG       30  30 100 CALM      30.26F VSB 1/4
DEFIANCE       PTCLDY    32  30  92 CALM      30.27F FOG
FINDLAY        CLEAR     38  35  89 W3        30.25S FOG
TOLEDO EXPRESS CLEAR     34  32  92 CALM      30.26S
TOLEDO METCALF CLEAR     38  35  89 CALM      30.26S
LIMA           CLEAR     38  36  92 NW3       30.26S FOG

$$
AND FOR LAKE MICHIGAN COASTAL AND OPEN LAKE BUOY OBSERVATIONS

STATION/POSITION TEMP    WIND        PRES    VSBY  WAVE
                 AIR SEA DIR/SP/G                  HT/PER
                 (F)     (DEG/KT/KT) (MB)    (MI)  (FT/S)
CALUMET HARBOR    42     160/  6/  9 1022.6F
MICHIGAN CITY     41     140/ 11/ 13   N/A
SAINT JOSEPH      38                 1025.1S
SOUTH LAKE BUOY   50 54  170/ 12/ 14 1024.2F         2/ 4

$$
&&



USA.gov is the U.S. government's official web portal to all federal, state and local government web resources and services.